weather.gov     
National Weather Service

Regional Weather Roundup
NWS Homepage
This page is being discontinued on March 12, 2014.
The same data is available at this site. Please update your bookmarks.
Thank you, and we apologize for the inconvenience.
Please send an email to SR-SRH.Webmaster@noaa.gov with any concerns.


Current Version
Previous Version:    01  02  03  04  05  06  07  08  09  10  11  12  13  14  15  16  17  18  19  20  21  22  23  24  25  26  27  28  29  30  
   31  32  33  34  35  36  37  38  39  40  41  42  43  44  45  46  47  48  49  50  51  52  53  54  55  56  57  58  59  60  
[Printable]
488
ASUS44 KSJT 011110
RWRSJT
WEST CENTRAL TEXAS REGIONAL WEATHER ROUNDUP
NATIONAL WEATHER SERVICE SAN ANGELO TX
600 AM CDT MON SEP 01 2014

NOTE: "FAIR" INDICATES FEW OR NO CLOUDS BELOW 12,000 FEET WITH NO
SIGNIFICANT WEATHER AND/OR OBSTRUCTIONS TO VISIBILITY.

TXZ049-054-064>066-071>073-076>078-098-099-113-114-127-128-139-140-
154-155-168>170-011200
...LOCATIONS ACROSS WEST CENTRAL TEXAS...

CITY           SKY/WX    TMP DP  RH WIND       PRES   REMARKS
SAN ANGELO     CLEAR     77  69  76 S16G24    29.90R
ABILENE        CLEAR     78  69  73 S20G29    29.87S
DYESS AFB      CLEAR     77  70  77 S16G26    29.86R
JUNCTION       PTCLDY    75  69  81 S7        29.94S
SWEETWATER     CLEAR     77  68  73 S20G26    29.91S
BROWNWOOD      CLEAR     75  68  78 S10       29.92R
COLEMAN        SUNNY     76  68  76 S12G17    29.91S
SONORA         CLOUDY    77  70  78 S13       29.98S
OZONA          FAIR      73  68  83 S15G22    29.96S
BRADY          CLEAR     73  68  83 S10       29.93S
$$

TEXAS PANHANDLE/OKLAHOMA PANHANDLE

CITY           SKY/WX    TMP DP  RH WIND       PRES   REMARKS
AMARILLO       CLEAR     74  57  55 W10       29.90R
BORGER         CLEAR     68  57  68 NW3       29.88R
CANADIAN       CLEAR     72  63  73 NW5       29.81R
DALHART        CLEAR     63  55  75 N8        29.96R
DUMAS          SUNNY     59  56  88 N6        29.91S
GUYMON         NOT AVBL
HEREFORD       SUNNY     73  60  64 S10       29.91S
PAMPA          SUNNY     68  55  61 NW7       29.88R
PERRYTON       CLEAR     65  62  89 NW7       29.84S
$$

SOUTHERN PANHANDLE/SOUTH PLAINS/ROLLING PLAINS

CITY           SKY/WX    TMP DP  RH WIND       PRES   REMARKS
LUBBOCK        PTCLDY    76  61  59 S16       29.89F
SNYDER         CLEAR     76  66  71 S14       29.90S
CHILDRESS      CLEAR     80  64  58 S12       29.80S
SEMINOLE       SUNNY     75  61  61 S8        29.93S
$$

PERMIAN BASIN

CITY           SKY/WX    TMP DP  RH WIND       PRES   REMARKS
MIDLAND        CLEAR     79  63  57 S13       29.91R
ODESSA         CLEAR     79  62  56 S15       29.92R
WINK           CLEAR     79  63  57 SE12      29.87R
$$

FAR WEST/SOUTHWEST MOUNTAINS/TRANS PECOS

CITY           SKY/WX    TMP DP  RH WIND       PRES   REMARKS
ALPINE         SUNNY     72  57  60 SW6       30.09S
DRYDEN           N/A     80  63  55 E3        29.90R
EL PASO        CLEAR     77  41  27 SW8       29.96S
FORT STOCKTON  CLEAR     76  62  62 S15       29.92R
GUADALUPE PASS CLEAR     73  45  36 SW16      30.09S
MARFA          CLEAR     61  55  82 N7        30.09S
PECOS          SUNNY     71  59  65 NW3       29.88R
$$

DALLAS/FORT WORTH METROPLEX

CITY           SKY/WX    TMP DP  RH WIND       PRES   REMARKS
DFW AIRPORT    MOCLDY    78  71  79 S22G28    29.88S
FTW MEACHAM    PTCLDY    78  72  81 S16       29.87S
DAL-EXECUTIVE  PTCLDY    78  71  79 S9G23     29.90S
GRAND PRAIRIE  PTCLDY    77  70  78 SE13G23   29.91R
ADDISON        NOT AVBL
MESQUITE       NOT AVBL
LANCASTER      PTSUNNY   76  70  83 S9        29.92S
$$

NORTH CENTRAL TEXAS

CITY           SKY/WX    TMP DP  RH WIND       PRES   REMARKS
SHRMAN/DENISON SUNNY     76  69  79 S15       29.89R
GAINESVILLE    CLEAR     75  69  81 S10       29.90R
BRIDGEPORT     SUNNY     78  68  72 S14       29.88R
DENTON         CLEAR     76  70  82 S17       29.87S
WAXAHACHIE     CLOUDY    77  70  79 S14G20    29.92S
GRANBURY       SUNNY     79  71  76 S13       29.90S
$$

WESTERN NORTH TEXAS

CITY           SKY/WX    TMP DP  RH WIND       PRES   REMARKS
WICHITA FALLS  CLEAR     80  70  71 S12       29.82R
VERNON         SUNNY     79  65  62 S13       29.81S
BRECKENRIDGE   SUNNY     79  69  70 S13G21    29.86R
COMANCHE         N/A     76  68  78 S12G20    29.91S
$$

CENTRAL AND SOUTH CENTRAL TEXAS

CITY           SKY/WX    TMP DP  RH WIND       PRES   REMARKS
AUSTIN/BERGSTM MOCLDY    77  75  93 S6        29.93R
WACO           PTCLDY    76  73  91 SE9       29.92F
HILLSBORO      SUNNY     76  71  83 SE12G17   29.92F
TEMPLE         PTCLDY    75  70  83 S14       29.93S
KILLEEN-GRAY   MOCLDY    77  72  83 S13       29.93S
FORT HOOD      CLEAR     79  72  79 SE8       29.93S
GEORGETOWN     CLOUDY    79  73  83 S8        29.95S
LAGO VISTA     CLOUDY    77  73  86 S5        29.95S
SAN MARCOS     PTCLDY    75  72  88 S6        29.95S
NEW BRAUNFELS  MOCLDY    78  74  87 S8        29.92S
RANDOLPH AFB   CLEAR     77  73  87 S6        29.93F
SAN ANTONIO    CLOUDY    79  74  84 S9        29.93S
STINSON        MOCLDY    78  74  87 S3        29.91S
PLEASANTON     NOT AVBL
LA GRANGE      CLOUDY    78  77  97 S3        29.91F FOG
GIDDINGS       CLOUDY    76  75  95 S5        29.98R FOG
$$

EAST TEXAS

CITY           SKY/WX    TMP DP  RH WIND       PRES   REMARKS
PARIS          MOCLDY    73  66  78 S9        29.93S
CLARKSVILLE    NOT AVBL
TYLER          CLOUDY    77  73  87 S12       29.95S
LONGVIEW       MOCLDY    78  73  84 S8        29.95F
PALESTINE      CLOUDY    77  74  93 S8        29.97S
NACOGDOCHES    CLOUDY    77  73  88 S8        29.98R
$$

TEXAS HILL COUNTRY AND EDWARDS PLATEAU

CITY           SKY/WX    TMP DP  RH WIND       PRES   REMARKS
LLANO          MOSUNNY   77  70  78 CALM      29.96S
HORSESHOE BAY  FAIR      77  70  80 CALM      29.94R
KERRVILLE      MOCLDY    74  70  88 S8        29.96S
FREDERICKSBRG  PTCLDY    74  68  81 S7        29.96S
ROCKSPRINGS    SUNNY     72  68  88 SE13      29.98S
HONDO          CLOUDY    77  73  87 SE8       29.95S
UVALDE         SUNNY     75  73  91 E3        29.93S
DEL RIO        CLEAR     80  71  74 SE12      29.88R
$$

SOUTHEAST TEXAS

CITY           SKY/WX    TMP DP  RH WIND       PRES   REMARKS
COLLEGE STN    CLOUDY    76  74  93 SE7       29.95R
CALDWELL       CLOUDY    77  77 100 SE7       29.97S
CROCKETT       NOT AVBL
BRENHAM        FOG       76  75  96 SE3       29.95R VSB 3/4
HUNTSVILLE     CLOUDY    77  75  93 S3        29.96R
CONROE         FOG       74  74 100 CALM      29.96S VSB 1/4
HOUSTON BUSH   PTCLDY    75  73  94 CALM      29.94S
HOUSTON HOBBY  PTCLDY    77  75  93 CALM      29.94R
PERLAND        CLEAR     77  74  90 E3        29.95S
WHARTON        SUNNY     73  73  97 CALM      29.94R FOG
$$

THE UPPER TEXAS COAST

CITY           SKY/WX    TMP DP  RH WIND       PRES   REMARKS
ORANGE         SUNNY     77  77 100 CALM      29.98S FOG
PORT ARTHUR    CLEAR     79  76  90 E3        29.96R
GALVESTON      MOCLDY    82  77  84 SE10      29.94S
ANGLETON       CLEAR     74  73  97 CALM      29.94R
BAY CITY       SUNNY     76  76 100 CALM      29.93R
$$

TEXAS COASTAL BEND, RIO GRANDE PLAINS DEEP SOUTH TEXAS

CITY           SKY/WX    TMP DP  RH WIND       PRES   REMARKS
VICTORIA       MOCLDY    78  77  96 NE5       29.92S FOG
BEEVILLE       FAIR      77  77 100 CALM      29.91S FOG
ROCKPORT       CLEAR     82  77  84 S7        29.90S
PORT ARANSAS   MOSUNNY   82  77  83 S9        29.89F
PORT LAVACA    SUNNY     77  76  95 CALM      29.91S
CORPUS CHRISTI PTCLDY    78  76  93 SE6       29.89S
KINGSVILLE NAS MOCLDY    77  77 100 E5        29.89S
COTULLA        PTCLDY    78  73  84 SE7       29.90S
LAREDO         CLEAR     80  74  82 SE10      29.90S
BROWNSVILLE    CLEAR     79  78  97 SE3       29.87F
PORT ISABEL    PTCLDY    82  78  88 SE6       29.87F
HEBBRONVILLE   PTSUNNY   77  75  93 SE8       29.91S FOG
MCALLEN        PTCLDY    79  77  94 SE5       29.87F
WESLACO        NOT AVBL
FALFURRIAS     CLOUDY    68  66  94 CALM      29.89S VSB 3/4
EDINBURG       SUNNY     78  75  90 SE3       29.87S FOG
$$




U.S. Dept. of Commerce
NOAA National Weather Service
1325 East West Highway
Silver Spring, MD 20910
E-mail: w-nws.webmaster@noaa.gov
Page last modified: May 16, 2007
NATIONAL WEATHER SERVICE: for Safety, for Work, for Fun - FOR LIFE